WX4MMM Weather Reports


time (UTC)temp
F
wind
direction
speed
knots
gust
knots
rain 1hr
in
rain 24hr
in
rain mn
in
humidity
%
barometer
mb
20260904225503 89 338 0.9 0.9 0.00 0.00 0.00 67 1012.2
20260904225004 89 316 0.0 0.9 0.00 0.00 0.00 65 1011.9
20260904224504 89 232 0.0 1.7 0.00 0.00 0.00 66 1011.8
20260904224004 90 235 0.9 1.7 0.00 0.00 0.00 66 1012.0
20260904223504 90 241 0.0 0.9 0.00 0.00 0.00 65 1012.2
20260904223005 91 233 0.0 0.9 0.00 0.00 0.00 65 1012.1
20260904222504 91 324 0.0 0.9 0.00 0.00 0.00 64 1012.2
20260904221003 91 268 0.0 0.9 0.00 0.00 0.00 63 1012.0
20260904220503 91 12 0.0 0.9 0.00 0.00 0.00 63 1012.1
20260904220004 91 192 0.0 1.7 0.00 0.00 0.00 63 1012.1
20260904215504 92 329 0.0 0.9 0.00 0.00 0.00 63 1012.3
20260904215003 92 225 0.0 0.9 0.00 0.00 0.00 62 1012.3
20260904214503 92 317 0.0 0.9 0.00 0.00 0.00 62 1012.4
20260904213503 93 296 0.0 0.9 0.00 0.00 0.00 60 1012.3
20260904213005 93 321 0.0 1.7 0.00 0.00 0.00 60 1012.3
20260904212505 93 171 0.0 1.7 0.00 0.00 0.00 59 1012.3
20260904212003 94 349 0.0 0.9 0.00 0.00 0.00 58 1012.3
20260904211504 94 204 0.0 1.7 0.00 0.00 0.00 56 1012.2
20260904211004 94 279 0.9 1.7 0.00 0.00 0.00 57 1012.2
20260904210504 95 180 0.9 1.7 0.00 0.00 0.00 56 1012.1
20260904210003 95 305 0.0 1.7 0.00 0.00 0.00 55 1012.0
20260904205503 96 223 0.9 2.6 0.00 0.00 0.00 54 1012.0
20260904205004 96 249 0.9 2.6 0.00 0.00 0.00 53 1011.7
20260904204503 96 246 0.9 1.7 0.00 0.00 0.00 55 1011.7
20260904204004 96 201 1.7 5.2 0.00 0.00 0.00 54 1011.6
20260904203504 96 242 0.9 1.7 0.00 0.00 0.00 55 1011.7
20260904203004 96 160 0.0 2.6 0.00 0.00 0.00 55 1012.0
20260904202503 96 185 0.9 2.6 0.00 0.00 0.00 55 1012.1
20260904202003 96 94 1.7 2.6 0.00 0.00 0.00 54 1012.1
20260904201505 96 292 0.9 1.7 0.00 0.00 0.00 54 1012.2
20260904201005 96 260 1.7 2.6 0.00 0.00 0.00 55 1012.2
20260904200504 97 210 0.9 2.6 0.00 0.00 0.00 54 1012.3
20260904200004 97 176 0.9 1.7 0.00 0.00 0.00 55 1012.5
20260904195503 97 192 0.9 2.6 0.00 0.00 0.00 54 1012.6
20260904195004 98 184 0.9 2.6 0.00 0.00 0.00 53 1012.7
20260904194503 98 168 0.9 2.6 0.00 0.00 0.00 52 1012.9
20260904194004 98 159 0.9 1.7 0.00 0.00 0.00 52 1012.8
20260904193004 98 158 0.9 2.6 0.00 0.00 0.00 48 1013.0
20260904192503 97 166 0.9 1.7 0.00 0.00 0.00 50 1013.0
20260904192003 97 160 1.7 4.3 0.00 0.00 0.00 54 1012.8
20260904190003 98 150 0.9 2.6 0.00 0.00 0.00 50 1013.3
20260904185503 98 174 0.9 2.6 0.00 0.00 0.00 51 1013.3
20260904185004 98 137 1.7 4.3 0.00 0.00 0.00 52 1013.5
20260904184503 98 161 1.7 1.7 0.00 0.00 0.00 49 1013.6
20260904183503 98 270 0.9 2.6 0.00 0.00 0.00 51 1013.7
20260904183004 98 133 1.7 2.6 0.00 0.00 0.00 50 1013.8
20260904182503 98 315 1.7 2.6 0.00 0.00 0.00 52 1013.8
20260904182005 97 331 0.0 1.7 0.00 0.00 0.00 52 1013.9
20260904181504 97 62 0.9 2.6 0.00 0.00 0.00 52 1014.0
20260904181003 98 179 0.9 2.6 0.00 0.00 0.00 52 1014.0
20260904180504 98 133 1.7 4.3 0.00 0.00 0.00 52 1014.0
20260904175503 97 240 0.9 2.6 0.00 0.00 0.00 54 1014.1
20260904174503 97 294 0.9 2.6 0.00 0.00 0.00 55 1014.3
20260904174004 98 279 0.9 2.6 0.00 0.00 0.00 53 1014.3
20260904173503 97 248 0.9 2.6 0.00 0.00 0.00 55 1014.3
20260904173004 97 240 0.9 1.7 0.00 0.00 0.00 54 1014.4
20260904172505 97 112 0.9 2.6 0.00 0.00 0.00 56 1014.5
20260904172004 97 244 0.0 1.7 0.00 0.00 0.00 56 1014.4
20260904171504 97 296 0.9 1.7 0.00 0.00 0.00 56 1014.4
20260904171004 97 216 0.0 1.7 0.00 0.00 0.00 56 1014.4
20260904170503 97 267 0.9 1.7 0.00 0.00 0.00 55 1014.4
20260904170005 96 68 0.9 2.6 0.00 0.00 0.00 55 1014.5
20260904165006 96 145 0.9 2.6 0.00 0.00 0.00 58 1014.7
20260904164503 96 189 0.9 2.6 0.00 0.00 0.00 57 1014.8
20260904164004 95 122 0.9 1.7 0.00 0.00 0.00 57 1014.9
20260904163504 94 339 0.9 1.7 0.00 0.00 0.00 60 1015.0
20260904163004 94 9 0.9 4.3 0.00 0.00 0.00 59 1015.0
20260904162503 94 163 1.7 4.3 0.00 0.00 0.00 60 1015.1
20260904161504 94 18 0.9 2.6 0.00 0.00 0.00 60 1015.3
20260904161004 94 53 0.9 2.6 0.00 0.00 0.00 59 1015.3
20260904160503 93 50 0.9 2.6 0.00 0.00 0.00 61 1015.4
20260904160003 93 287 0.9 1.7 0.00 0.00 0.00 61 1015.4
20260904155504 93 314 0.9 2.6 0.00 0.00 0.00 62 1015.4
20260904155004 92 7 0.0 4.3 0.00 0.00 0.00 62 1015.5
20260904154005 92 112 0.9 2.6 0.00 0.00 0.00 62 1015.6
20260904153504 92 168 0.9 2.6 0.00 0.00 0.00 62 1015.5
20260904153004 91 145 0.9 2.6 0.00 0.00 0.00 64 1015.6
20260904152503 91 186 1.7 2.6 0.00 0.00 0.00 64 1015.6
20260904152003 90 158 0.9 2.6 0.00 0.00 0.00 66 1015.6
20260904151004 90 74 0.9 1.7 0.00 0.00 0.00 66 1015.6
20260904150004 89 107 1.7 2.6 0.00 0.00 0.00 66 1015.6
20260904145505 89 190 0.9 2.6 0.00 0.00 0.00 66 1015.6
20260904145004 89 128 0.9 2.6 0.00 0.00 0.00 67 1015.7
20260904144504 89 29 0.9 2.6 0.00 0.00 0.00 67 1015.7
20260904144003 88 177 1.7 2.6 0.00 0.00 0.00 69 1015.7
20260904143503 88 175 0.9 1.7 0.00 0.00 0.00 68 1015.7
20260904143003 87 313 0.9 2.6 0.00 0.00 0.00 70 1015.7
20260904142503 87 202 1.7 4.3 0.00 0.00 0.00 70 1015.7
20260904142004 87 296 0.9 2.6 0.00 0.00 0.00 71 1015.7
20260904141504 86 267 1.7 5.2 0.00 0.00 0.00 72 1015.7
20260904141003 86 161 0.9 2.6 0.00 0.00 0.00 72 1015.6
20260904140505 85 164 0.9 2.6 0.00 0.00 0.00 74 1015.6
20260904135504 84 67 1.7 2.6 0.00 0.00 0.00 75 1015.7
20260904135004 84 194 0.0 1.7 0.00 0.00 0.00 76 1015.8
20260904134504 84 156 1.7 1.7 0.00 0.00 0.00 77 1015.8
20260904134004 83 68 1.7 2.6 0.00 0.00 0.00 77 1015.8
20260904133503 83 154 1.7 4.3 0.00 0.00 0.00 78 1015.8
20260904133004 83 94 0.9 2.6 0.00 0.00 0.00 78 1015.8
20260904132503 82 50 0.0 2.6 0.00 0.00 0.00 79 1015.8
20260904131004 82 294 0.9 2.6 0.00 0.00 0.00 80 1015.9
20260904130503 81 86 0.9 2.6 0.00 0.00 0.00 81 1015.9
20260904130003 81 42 0.0 2.6 0.00 0.00 0.00 82 1015.9
20260904125505 81 34 1.7 2.6 0.00 0.00 0.00 82 1015.9
20260904125004 80 150 0.9 2.6 0.00 0.00 0.00 83 1016.0
20260904124505 80 136 0.9 2.6 0.00 0.00 0.00 84 1016.0
20260904124004 80 160 0.0 2.6 0.00 0.00 0.00 84 1016.0
20260904123503 79 192 0.9 0.9 0.00 0.00 0.00 85 1015.9
20260904123003 79 198 0.9 1.7 0.00 0.00 0.00 86 1016.0
20260904122504 79 0 0.9 1.7 0.00 0.00 0.00 86 1016.0
20260904120504 78 142 0.0 0.9 0.00 0.00 0.00 89 1016.0
20260904120003 77 125 0.0 0.9 0.00 0.00 0.00 89 1016.0
20260904115004 77 110 0.0 0.9 0.00 0.00 0.00 90 1016.0
20260904114504 77 199 0.9 1.7 0.00 0.00 0.00 90 1016.0
20260904114004 76 178 0.9 0.9 0.00 0.00 0.00 91 1015.9
20260904113504 76 117 0.0 0.9 0.00 0.00 0.00 92 1016.0
20260904113004 76 2 0.0 0.0 0.00 0.00 0.00 92 1015.9
20260904112505 76 2 0.0 0.0 0.00 0.00 0.00 92 1015.9
20260904112004 76 2 0.0 0.0 0.00 0.00 0.00 92 1015.8
20260904111503 76 347 0.0 1.7 0.00 0.00 0.00 92 1015.9
20260904111005 76 132 0.0 0.9 0.00 0.00 0.00 92 1015.8
20260904110503 76 147 0.0 0.0 0.00 0.00 0.00 92 1015.7
20260904110003 76 147 0.0 0.0 0.00 0.00 0.00 92 1015.7
20260904105503 76 147 0.0 0.0 0.00 0.00 0.00 91 1015.7
20260904105003 76 147 0.0 0.9 0.00 0.00 0.00 91 1015.7
20260904104003 76 145 0.0 0.9 0.00 0.00 0.00 91 1015.7
20260904103503 76 281 0.0 0.9 0.00 0.00 0.00 91 1015.7
20260904103003 76 190 0.0 0.9 0.00 0.00 0.00 91 1015.8
20260904102503 76 179 0.0 0.9 0.00 0.00 0.00 91 1015.7
20260904101503 76 199 0.0 0.9 0.00 0.00 0.00 91 1015.7
20260904100503 76 216 0.0 0.0 0.00 0.00 0.00 90 1015.7
20260904100004 76 273 0.0 0.0 0.00 0.00 0.00 90 1015.7
20260904095503 77 273 0.0 0.9 0.00 0.00 0.00 90 1015.7
20260904095003 77 336 0.0 0.0 0.00 0.00 0.00 90 1015.6
20260904094503 77 341 0.0 0.0 0.00 0.00 0.00 89 1015.6
20260904094004 77 156 0.0 0.0 0.00 0.00 0.00 89 1015.6
20260904093504 77 156 0.0 0.9 0.00 0.00 0.00 88 1015.6
20260904093004 77 112 0.0 0.9 0.00 0.00 0.00 88 1015.6
20260904092503 77 274 0.0 0.9 0.00 0.00 0.00 88 1015.6
20260904092003 78 173 0.0 0.0 0.00 0.00 0.00 88 1015.6
20260904091503 78 173 0.0 0.0 0.00 0.00 0.00 87 1015.6
20260904091003 78 169 0.9 1.7 0.00 0.00 0.00 87 1015.5
20260904090503 78 61 0.0 0.9 0.00 0.00 0.00 86 1015.5
20260904090003 78 80 0.0 0.0 0.00 0.00 0.00 86 1015.4
20260904085003 78 110 0.0 0.9 0.00 0.00 0.00 86 1015.3
20260904084503 78 115 0.0 0.9 0.00 0.00 0.00 86 1015.2
20260904083503 78 95 0.0 0.0 0.00 0.00 0.00 86 1015.1
20260904083005 78 190 0.9 1.7 0.00 0.00 0.00 85 1015.1
20260904082503 78 184 0.9 1.7 0.00 0.00 0.00 85 1015.1
20260904082003 78 168 0.9 1.7 0.00 0.00 0.00 85 1015.1
20260904081503 78 280 0.9 1.7 0.00 0.00 0.00 84 1015.1
20260904081003 78 25 0.0 0.9 0.00 0.00 0.00 85 1015.2
20260904080005 79 118 0.0 1.7 0.00 0.00 0.00 84 1015.2
20260904075503 79 353 0.9 0.9 0.00 0.00 0.00 84 1015.1
20260904075004 79 341 0.0 0.9 0.00 0.00 0.00 84 1015.1
20260904074504 79 20 0.0 0.9 0.00 0.00 0.00 84 1015.0
20260904073004 79 155 0.0 0.9 0.00 0.00 0.00 84 1015.0
20260904072504 79 343 0.9 1.7 0.00 0.00 0.00 84 1015.0
20260904072003 79 170 0.9 1.7 0.00 0.00 0.00 83 1015.0
20260904071503 79 177 0.9 1.7 0.00 0.00 0.00 83 1015.0
20260904071004 79 245 0.9 0.9 0.00 0.00 0.00 84 1015.1
20260904070504 79 293 0.0 0.9 0.00 0.00 0.00 84 1015.1
20260904070005 79 294 0.0 0.9 0.00 0.00 0.00 83 1015.2
20260904065503 79 184 0.0 0.9 0.00 0.00 0.00 83 1015.3
20260904065004 79 145 0.9 1.7 0.00 0.00 0.00 83 1015.3
20260904064003 79 296 0.0 0.9 0.00 0.00 0.00 83 1015.4
20260904063504 79 166 0.9 1.7 0.00 0.00 0.00 83 1015.5
20260904063004 79 302 0.0 0.9 0.00 0.00 0.00 83 1015.6
20260904062503 79 296 0.0 0.9 0.00 0.00 0.00 82 1015.7
20260904062004 79 152 0.0 0.0 0.00 0.00 0.00 82 1015.8
20260904061504 79 310 0.0 0.9 0.00 0.00 0.00 82 1015.8
20260904061005 79 153 0.0 0.9 0.00 0.00 0.00 82 1015.9
20260904060505 80 249 0.0 0.0 0.00 0.00 0.00 82 1016.0
20260904060004 80 249 0.0 0.9 0.00 0.00 0.00 81 1016.1
20260904055505 80 239 0.0 0.0 0.00 0.00 0.00 81 1016.1
20260904055004 80 239 0.0 0.0 0.00 0.00 0.00 81 1016.2
20260904054503 80 239 0.0 0.9 0.00 0.00 0.00 81 1016.2
20260904054004 80 198 0.0 0.9 0.00 0.00 0.00 80 1016.3
20260904053503 80 149 0.0 0.9 0.00 0.00 0.00 81 1016.3
20260904053004 80 160 0.0 0.9 0.00 0.00 0.00 80 1016.4
20260904052504 81 198 0.0 0.0 0.00 0.00 0.00 80 1016.4
20260904052003 81 198 0.0 0.0 0.00 0.00 0.00 80 1016.4
20260904051503 81 198 0.0 0.9 0.00 0.00 0.00 79 1016.5
20260904051004 81 198 0.9 1.7 0.00 0.00 0.00 79 1016.5
20260904050504 81 285 0.0 0.9 0.00 0.00 0.00 79 1016.5
20260904045504 82 187 0.0 0.9 0.00 0.00 0.00 78 1016.5
20260904045004 82 313 0.9 0.9 0.00 0.00 0.00 78 1016.4
20260904044505 82 263 0.0 0.9 0.00 0.00 0.00 78 1016.4
20260904044004 82 206 0.9 2.6 0.00 0.00 0.00 78 1016.4
20260904043505 82 320 0.0 0.0 0.00 0.00 0.00 78 1016.4
20260904042505 82 152 0.9 2.6 0.00 0.00 0.00 78 1016.3
20260904042003 82 171 0.9 1.7 0.00 0.00 0.00 78 1016.3
20260904041004 83 178 0.9 1.7 0.00 0.00 0.00 78 1016.2
20260904040504 83 166 1.7 2.6 0.00 0.00 0.00 78 1016.0
20260904040005 83 188 0.9 1.7 0.00 0.00 0.00 78 1016.0
20260904035504 83 155 0.9 1.7 0.00 0.00 0.00 79 1016.0
20260904035005 83 217 0.9 1.7 0.00 0.00 0.00 79 1016.0
20260904034503 83 235 0.9 1.7 0.00 0.00 0.00 79 1016.0
20260904034005 83 200 0.9 0.9 0.00 0.00 0.00 79 1016.0
20260904033504 83 292 0.0 0.9 0.00 0.00 0.00 79 1016.1
20260904033005 83 229 0.0 0.9 0.00 0.00 0.00 79 1016.1
20260904032503 83 186 0.0 0.9 0.00 0.00 0.00 79 1016.2
20260904031504 82 65 0.0 0.9 0.00 0.00 0.00 80 1016.1
20260904030502 82 172 0.9 0.9 0.00 0.00 0.00 80 1016.2
20260904030004 81 328 0.0 0.0 0.00 0.00 0.00 82 1016.2
20260904025503 81 328 0.0 0.9 0.00 0.00 0.00 82 1016.2
20260904025003 81 229 0.0 0.0 0.00 0.00 0.00 82 1016.2
20260904024503 81 229 0.0 0.0 0.00 0.00 0.00 82 1016.3
20260904024003 81 229 0.0 0.0 0.00 0.00 0.00 83 1016.4
20260904023503 81 229 0.0 0.9 0.00 0.00 0.00 83 1016.4
20260904023003 81 237 0.0 0.9 0.00 0.00 0.00 83 1016.4
20260904022503 82 183 0.0 0.9 0.00 0.00 0.00 83 1016.5
20260904022003 82 272 0.0 0.0 0.00 0.00 0.00 83 1016.4
20260904021503 82 272 0.0 0.0 0.00 0.00 0.00 82 1016.4
20260904021003 82 269 0.0 0.9 0.00 0.00 0.00 82 1016.4
20260904020502 82 279 0.0 0.0 0.00 0.00 0.00 82 1016.3
20260904020003 82 309 0.0 0.0 0.00 0.00 0.00 82 1016.3
20260904015503 82 297 0.0 0.9 0.00 0.00 0.00 81 1016.3
20260904015003 83 272 0.0 0.9 0.00 0.00 0.00 80 1016.3
20260904014503 83 158 0.0 0.0 0.00 0.00 0.00 80 1016.3
20260904013503 83 272 0.0 0.0 0.00 0.00 0.00 79 1016.2
20260904013003 83 303 0.0 0.9 0.00 0.00 0.00 79 1016.1
20260904012503 84 256 0.0 0.9 0.00 0.00 0.00 78 1016.0
20260904012003 84 251 0.0 0.9 0.00 0.00 0.00 78 1016.0
20260904011003 84 253 0.0 0.9 0.00 0.00 0.00 77 1015.7
20260904010505 84 230 0.0 0.9 0.00 0.00 0.00 76 1015.6
20260904010003 84 268 0.0 0.0 0.00 0.00 0.00 76 1015.6
20260904005502 85 268 0.0 0.0 0.00 0.00 0.00 75 1015.5
20260904005003 85 239 0.0 1.7 0.00 0.00 0.00 75 1015.5
20260904004004 85 312 0.0 0.9 0.00 0.00 0.00 75 1015.2
20260904003503 85 327 0.0 0.9 0.00 0.00 0.00 74 1015.2
20260904002004 85 280 0.0 0.9 0.00 0.00 0.00 73 1014.9
20260904001505 85 218 0.0 0.9 0.00 0.00 0.00 74 1014.8
20260904000503 85 336 0.0 0.9 0.00 0.00 0.00 72 1014.8
20260903235503 86 233 0.0 0.9 0.00 0.00 0.00 71 1014.7
20260903235004 86 314 0.0 0.9 0.00 0.00 0.00 70 1014.5
20260903234503 87 121 0.0 0.9 0.00 0.00 0.00 70 1014.5
20260903234004 87 266 0.0 0.9 0.00 0.00 0.00 68 1014.5
20260903233503 87 155 0.0 0.9 0.00 0.00 0.00 68 1014.4
20260903233004 88 345 0.0 0.9 0.00 0.00 0.00 66 1014.4
20260903232003 89 319 0.0 0.9 0.00 0.00 0.00 64 1014.4
20260903231503 89 225 0.0 0.9 0.00 0.00 0.00 62 1014.5
20260903231005 89 358 0.0 0.9 0.00 0.00 0.00 61 1014.5
20260903230504 90 266 0.9 2.6 0.00 0.00 0.00 60 1014.5
20260903230003 90 16 0.9 1.7 0.00 0.00 0.00 59 1014.5